Location: Dumpton Point
(51.3500°N, 1.4433°E)
Time: 16:11:23
(UTC+00:00)

Vanguard 2 Rocket - All Passes

Search period start: 24 September 2022 00:00
Search period end: 04 October 2022 00:00
Orbit: 553 x 3323 km, 32.9° (Epoch: 23 September)

Date Brightness Start Highest point End Pass type
(mag) Time Alt. Az. Time Alt. Az. Time Alt. Az.
26 Sep - 02:30:46 10° SSW 02:32:20 11° S 02:33:45 10° S visible
27 Sep - 01:29:32 10° SSW 01:32:41 13° S 01:35:20 10° SSE night (unlit)
28 Sep - 00:28:37 10° SSW 00:32:54 14° S 00:36:19 10° SE night (unlit)
28 Sep - 02:42:35 10° SW 02:44:57 12° SSW 02:47:01 10° S visible
28 Sep - 23:27:53 10° SSW 23:32:54 14° S 23:36:53 10° SE night (unlit)
29 Sep - 01:41:00 10° SW 01:45:22 15° S 01:48:47 10° SSE night (unlit)
29 Sep - 22:27:34 10° S 22:32:43 14° SSE 22:36:54 10° SE night (unlit)
30 Sep - 00:39:36 10° SW 00:45:35 18° S 00:50:01 10° SE night (unlit)
30 Sep - 02:55:12 10° SW 02:57:29 12° SSW 02:59:30 10° S visible
30 Sep - 21:28:09 10° S 21:32:20 12° SSE 21:35:57 10° SE visible
30 Sep - 23:38:16 10° SSW 23:45:35 19° S 23:50:53 10° SE night (unlit)
01 Oct - 01:53:04 10° SW 01:57:57 17° SSW 02:01:42 10° SSE night (unlit)
01 Oct - 22:37:05 10° SSW 22:45:22 19° SSE 22:51:24 10° SE visible
02 Oct - 00:51:16 10° SW 00:58:13 20° S 01:03:09 10° SE night (unlit)
02 Oct - 03:08:52 10° SW 03:09:53 10° SSW 03:10:52 10° SSW visible
02 Oct - 21:36:16 10° SSW 21:44:54 18° SSE 21:51:26 10° SE visible
02 Oct - 23:49:29 10° SW 23:58:13 23° S 00:04:13 10° SE night (unlit)
03 Oct - 02:05:31 10° WSW 02:10:26 16° SSW 02:14:12 10° SSE night (unlit)
03 Oct - 20:36:08 10° S 20:44:15 16° SSE 20:50:48 10° ESE visible
03 Oct - 22:47:46 10° SW 22:57:58 24° S 23:04:57 10° SE visible
